Time,TemperatureF,DewpointF,PressureIn,WindDirection,WindDirectionDegrees,WindSpeedMPH,WindSpeedGustMPH,Humidity,HourlyPrecipIn,Conditions,Clouds,dailyrainin,SoftwareType,DateUTC
2013-08-02 00:03:00,54.0,49.9,29.97,West,270,3.4,4.0,86,0.00,,,0.00,WUHU216HW,2013-08-02 07:03:00,
2013-08-02 00:08:00,53.8,49.4,29.98,WSW,248,4.0,4.5,85,0.00,,,0.00,WUHU216HW,2013-08-02 07:08:00,
2013-08-02 00:14:00,53.6,49.2,29.97,WSW,248,4.0,4.7,85,0.00,,,0.00,WUHU216HW,2013-08-02 07:14:00,
2013-08-02 00:19:00,53.6,49.0,29.97,West,270,4.7,4.7,84,0.00,,,0.00,WUHU216HW,2013-08-02 07:19:00,
2013-08-02 00:24:00,53.5,48.8,29.96,West,270,3.4,4.7,84,0.00,,,0.00,WUHU216HW,2013-08-02 07:24:00,
2013-08-02 00:29:00,53.3,48.6,29.97,West,270,2.7,4.7,84,0.00,,,0.00,WUHU216HW,2013-08-02 07:29:00,
2013-08-02 00:34:00,53.3,48.6,29.97,WSW,248,2.0,4.0,84,0.00,,,0.00,WUHU216HW,2013-08-02 07:34:00,
2013-08-02 00:39:00,53.5,49.1,29.98,WSW,248,3.1,4.0,85,0.00,,,0.00,WUHU216HW,2013-08-02 07:39:00,
2013-08-02 00:44:00,53.5,49.1,29.96,WSW,248,2.9,4.0,85,0.00,,,0.00,WUHU216HW,2013-08-02 07:44:00,
2013-08-02 00:49:00,53.5,49.1,29.97,West,270,4.5,4.5,85,0.00,,,0.00,WUHU216HW,2013-08-02 07:49:00,
2013-08-02 00:54:00,53.5,49.1,29.95,WSW,248,4.5,4.9,85,0.00,,,0.00,WUHU216HW,2013-08-02 07:54:00,
2013-08-02 00:59:00,53.5,49.1,29.95,WSW,248,3.4,4.9,85,0.00,,,0.00,WUHU216HW,2013-08-02 07:59:00,
2013-08-02 01:04:00,53.6,49.2,29.98,WSW,248,1.8,3.6,85,0.00,,,0.00,WUHU216HW,2013-08-02 08:04:00,
2013-08-02 01:09:00,53.6,49.2,29.95,WSW,248,5.1,5.1,85,0.00,,,0.00,WUHU216HW,2013-08-02 08:09:00,
2013-08-02 01:15:00,53.8,49.1,29.95,WSW,248,4.7,5.1,84,0.00,,,0.00,WUHU216HW,2013-08-02 08:15:00,
2013-08-02 01:20:00,53.6,49.0,29.95,SW,225,2.7,4.9,84,0.00,,,0.00,WUHU216HW,2013-08-02 08:20:00,
2013-08-02 01:25:00,53.6,49.0,29.94,SW,225,2.7,3.8,84,0.00,,,0.00,WUHU216HW,2013-08-02 08:25:00,
2013-08-02 01:30:00,53.5,48.8,29.96,SW,225,3.1,3.6,84,0.00,,,0.00,WUHU216HW,2013-08-02 08:30:00,
2013-08-02 01:35:00,53.3,48.6,29.95,WSW,248,3.4,4.0,84,0.00,,,0.00,WUHU216HW,2013-08-02 08:35:00,
2013-08-02 01:40:00,53.3,48.6,29.94,WSW,248,3.6,4.3,84,0.00,,,0.00,WUHU216HW,2013-08-02 08:40:00,
2013-08-02 01:45:00,53.5,48.8,29.94,WSW,248,4.0,4.3,84,0.00,,,0.00,WUHU216HW,2013-08-02 08:45:00,
2013-08-02 01:50:00,53.5,48.4,29.93,SW,225,2.7,4.0,83,0.00,,,0.00,WUHU216HW,2013-08-02 08:50:00,
2013-08-02 01:55:00,53.3,48.2,29.94,SW,225,2.2,4.0,83,0.00,,,0.00,WUHU216HW,2013-08-02 08:55:00,
2013-08-02 02:00:00,53.3,48.2,29.94,WSW,248,3.1,3.4,83,0.00,,,0.00,WUHU216HW,2013-08-02 09:00:00,
2013-08-02 02:05:00,53.5,48.2,29.94,WSW,248,2.2,3.8,82,0.00,,,0.00,WUHU216HW,2013-08-02 09:05:00,
2013-08-02 02:10:00,53.6,48.3,29.94,WSW,248,2.9,3.8,82,0.00,,,0.00,WUHU216HW,2013-08-02 09:10:00,
2013-08-02 02:15:00,53.6,48.3,29.95,WSW,248,2.9,3.4,82,0.00,,,0.00,WUHU216HW,2013-08-02 09:15:00,
2013-08-02 02:20:00,53.8,48.2,29.95,SW,225,2.2,3.1,81,0.00,,,0.00,WUHU216HW,2013-08-02 09:20:00,
2013-08-02 02:26:00,53.8,47.9,29.94,WSW,248,2.5,4.0,80,0.00,,,0.00,WUHU216HW,2013-08-02 09:26:00,
2013-08-02 02:31:00,53.6,47.7,29.94,WSW,248,3.8,4.0,80,0.00,,,0.00,WUHU216HW,2013-08-02 09:31:00,
2013-08-02 02:36:00,53.6,47.3,29.94,WSW,248,2.9,4.0,79,0.00,,,0.00,WUHU216HW,2013-08-02 09:36:00,
2013-08-02 02:41:00,53.6,47.3,29.96,WSW,248,3.4,3.8,79,0.00,,,0.00,WUHU216HW,2013-08-02 09:41:00,
2013-08-02 02:46:00,53.6,47.0,29.95,WSW,248,4.0,4.0,78,0.00,,,0.00,WUHU216HW,2013-08-02 09:46:00,
2013-08-02 02:51:00,53.6,47.0,29.94,WSW,248,3.1,4.0,78,0.00,,,0.00,WUHU216HW,2013-08-02 09:51:00,
2013-08-02 02:56:00,53.6,47.0,29.94,WSW,248,2.9,4.0,78,0.00,,,0.00,WUHU216HW,2013-08-02 09:56:00,
2013-08-02 03:01:00,53.3,46.3,29.94,WSW,248,3.1,3.1,77,0.00,,,0.00,WUHU216HW,2013-08-02 10:01:00,
2013-08-02 03:06:00,52.9,46.3,29.95,WSW,248,2.9,3.4,78,0.00,,,0.00,WUHU216HW,2013-08-02 10:06:00,
2013-08-02 03:11:00,52.7,46.4,29.95,WSW,248,2.5,3.4,79,0.00,,,0.00,WUHU216HW,2013-08-02 10:11:00,
2013-08-02 03:16:00,52.7,46.8,29.94,WSW,248,2.2,2.9,80,0.00,,,0.00,WUHU216HW,2013-08-02 10:16:00,
2013-08-02 03:22:00,52.6,46.9,29.94,West,270,1.8,2.7,81,0.00,,,0.00,WUHU216HW,2013-08-02 10:22:00,
2013-08-02 03:27:00,52.4,46.7,29.94,WSW,248,1.8,2.5,81,0.00,,,0.00,WUHU216HW,2013-08-02 10:27:00,
2013-08-02 03:32:00,52.4,47.3,29.95,SE,135,1.6,2.2,83,0.00,,,0.00,WUHU216HW,2013-08-02 10:32:00,
2013-08-02 03:37:00,52.2,47.5,29.95,WSW,248,2.2,2.2,84,0.00,,,0.00,WUHU216HW,2013-08-02 10:37:00,
2013-08-02 03:42:00,52.0,47.9,29.95,WSW,248,2.5,2.5,86,0.00,,,0.00,WUHU216HW,2013-08-02 10:42:00,
2013-08-02 03:47:00,52.0,47.9,29.96,NW,315,0.7,2.5,86,0.00,,,0.00,WUHU216HW,2013-08-02 10:47:00,
2013-08-02 03:52:00,52.0,48.3,29.95,SW,225,3.6,3.6,87,0.00,,,0.00,WUHU216HW,2013-08-02 10:52:00,
2013-08-02 03:57:00,52.0,48.5,29.94,West,270,2.0,3.6,88,0.00,,,0.00,WUHU216HW,2013-08-02 10:57:00,
2013-08-02 04:02:00,52.0,48.9,29.95,NNW,338,0.4,2.0,89,0.00,,,0.00,WUHU216HW,2013-08-02 11:02:00,
2013-08-02 04:07:00,52.0,48.9,29.96,SSW,203,1.1,2.5,89,0.00,,,0.00,WUHU216HW,2013-08-02 11:07:00,
2013-08-02 04:12:00,52.0,48.9,29.95,WSW,248,2.9,2.9,89,0.00,,,0.00,WUHU216HW,2013-08-02 11:12:00,
2013-08-02 04:17:00,52.0,48.9,29.94,SSW,203,0.4,2.9,89,0.00,,,0.00,WUHU216HW,2013-08-02 11:17:00,
2013-08-02 04:22:00,52.0,49.1,29.95,West,270,0.4,1.6,90,0.00,,,0.00,WUHU216HW,2013-08-02 11:22:00,
2013-08-02 04:27:00,52.2,49.3,29.94,WSW,248,1.1,1.6,90,0.00,,,0.00,WUHU216HW,2013-08-02 11:27:00,
2013-08-02 04:33:00,52.2,49.3,29.97,WSW,248,1.1,1.1,90,0.00,,,0.00,WUHU216HW,2013-08-02 11:33:00,
2013-08-02 04:38:00,52.2,49.3,29.95,West,270,0.4,1.1,90,0.00,,,0.00,WUHU216HW,2013-08-02 11:38:00,
2013-08-02 04:43:00,52.2,49.3,29.95,NNE,23,0.4,0.9,90,0.00,,,0.00,WUHU216HW,2013-08-02 11:43:00,
2013-08-02 04:48:00,52.4,49.5,29.96,WSW,248,0.9,1.1,90,0.00,,,0.00,WUHU216HW,2013-08-02 11:48:00,
2013-08-02 04:53:00,52.4,49.5,29.94,West,270,0.9,1.1,90,0.00,,,0.00,WUHU216HW,2013-08-02 11:53:00,
2013-08-02 04:58:00,52.4,49.5,29.95,WNW,293,0.4,1.1,90,0.00,,,0.00,WUHU216HW,2013-08-02 11:58:00,
2013-08-02 05:03:00,52.2,49.6,29.94,NW,315,0.9,1.1,91,0.00,,,0.00,WUHU216HW,2013-08-02 12:03:00,
2013-08-02 05:08:00,52.2,49.6,29.95,North,0,1.1,1.1,91,0.00,,,0.00,WUHU216HW,2013-08-02 12:08:00,
2013-08-02 05:13:00,52.2,49.6,29.95,East,90,0.9,1.8,91,0.00,,,0.00,WUHU216HW,2013-08-02 12:13:00,
2013-08-02 05:18:00,52.2,49.9,29.95,North,0,1.6,1.8,92,0.00,,,0.00,WUHU216HW,2013-08-02 12:18:00,
2013-08-02 05:23:00,52.2,49.9,29.94,NNE,23,1.1,1.8,92,0.00,,,0.00,WUHU216HW,2013-08-02 12:23:00,
2013-08-02 05:29:00,52.2,49.9,29.93,ESE,113,0.9,3.4,92,0.00,,,0.00,WUHU216HW,2013-08-02 12:29:00,
2013-08-02 05:34:00,52.2,49.9,29.94,NW,315,0.4,3.4,92,0.00,,,0.00,WUHU216HW,2013-08-02 12:34:00,
2013-08-02 05:39:00,52.2,49.9,29.94,North,0,1.8,2.2,92,0.00,,,0.00,WUHU216HW,2013-08-02 12:39:00,
2013-08-02 05:44:00,52.0,49.7,29.95,North,0,2.2,2.2,92,0.00,,,0.00,WUHU216HW,2013-08-02 12:44:00,
2013-08-02 05:49:00,51.8,49.5,29.94,NNW,338,1.3,2.2,92,0.00,,,0.00,WUHU216HW,2013-08-02 12:49:00,
2013-08-02 05:54:00,52.0,49.7,29.94,North,0,0.9,1.8,92,0.00,,,0.00,WUHU216HW,2013-08-02 12:54:00,
2013-08-02 05:59:00,51.8,49.5,29.94,North,0,0.9,1.6,92,0.00,,,0.00,WUHU216HW,2013-08-02 12:59:00,
2013-08-02 06:04:00,51.8,49.5,29.95,ENE,68,0.9,3.4,92,0.00,,,0.00,WUHU216HW,2013-08-02 13:04:00,
2013-08-02 06:09:00,51.8,49.5,29.94,North,0,1.6,3.4,92,0.00,,,0.00,WUHU216HW,2013-08-02 13:09:00,
2013-08-02 06:14:00,51.8,49.5,29.95,NNW,338,1.3,1.8,92,0.00,,,0.00,WUHU216HW,2013-08-02 13:14:00,
2013-08-02 06:19:00,51.5,48.9,29.95,WNW,293,1.6,2.0,91,0.00,,,0.00,WUHU216HW,2013-08-02 13:19:00,
2013-08-02 06:24:00,51.5,48.9,29.95,NW,315,0.4,2.0,91,0.00,,,0.00,WUHU216HW,2013-08-02 13:24:00,
2013-08-02 06:29:00,51.5,48.9,29.96,South,180,0.4,1.8,91,0.00,,,0.00,WUHU216HW,2013-08-02 13:29:00,
2013-08-02 06:34:00,51.5,48.9,29.95,NE,45,1.1,1.8,91,0.00,,,0.00,WUHU216HW,2013-08-02 13:34:00,
2013-08-02 06:39:00,51.5,48.9,29.95,WNW,293,0.7,1.8,91,0.00,,,0.00,WUHU216HW,2013-08-02 13:39:00,
2013-08-02 06:44:00,51.5,49.1,29.96,NNW,338,1.8,2.0,92,0.00,,,0.00,WUHU216HW,2013-08-02 13:44:00,
2013-08-02 06:50:00,51.5,49.1,29.95,SE,135,0.4,2.0,92,0.00,,,0.00,WUHU216HW,2013-08-02 13:50:00,
2013-08-02 06:55:00,51.5,49.1,29.95,NNE,23,2.5,2.5,92,0.00,,,0.00,WUHU216HW,2013-08-02 13:55:00,
2013-08-02 07:00:00,51.5,49.1,29.95,SSE,158,0.2,2.5,92,0.00,,,0.00,WUHU216HW,2013-08-02 14:00:00,
2013-08-02 07:05:00,51.5,49.1,29.96,West,270,1.3,1.8,92,0.00,,,0.00,WUHU216HW,2013-08-02 14:05:00,
2013-08-02 07:10:00,51.5,49.1,29.96,West,270,1.8,2.9,92,0.00,,,0.00,WUHU216HW,2013-08-02 14:10:00,
2013-08-02 07:15:00,51.5,49.1,29.96,NNW,338,0.4,2.9,92,0.00,,,0.00,WUHU216HW,2013-08-02 14:15:00,
2013-08-02 07:20:00,51.3,49.0,29.97,NNW,338,2.9,2.9,92,0.00,,,0.00,WUHU216HW,2013-08-02 14:20:00,
2013-08-02 07:25:00,51.3,49.0,29.96,NNW,338,1.1,3.1,92,0.00,,,0.00,WUHU216HW,2013-08-02 14:25:00,
2013-08-02 07:30:00,51.3,49.0,29.97,NE,45,1.3,3.4,92,0.00,,,0.00,WUHU216HW,2013-08-02 14:30:00,
2013-08-02 07:35:00,51.3,49.0,29.96,West,270,1.1,3.4,92,0.00,,,0.00,WUHU216HW,2013-08-02 14:35:00,
2013-08-02 07:40:00,51.5,49.1,29.98,South,180,0.0,2.2,92,0.00,,,0.00,WUHU216HW,2013-08-02 14:40:00,
2013-08-02 07:45:00,51.8,49.5,29.99,NE,45,0.9,1.8,92,0.00,,,0.00,WUHU216HW,2013-08-02 14:45:00,
2013-08-02 07:50:00,52.2,49.9,29.97,NE,45,0.0,1.1,92,0.00,,,0.00,WUHU216HW,2013-08-02 14:50:00,
2013-08-02 07:56:00,52.2,49.9,29.98,NNE,23,0.9,1.1,92,0.00,,,0.00,WUHU216HW,2013-08-02 14:56:00,
2013-08-02 08:01:00,52.2,49.9,29.97,North,0,0.4,0.9,92,0.00,,,0.00,WUHU216HW,2013-08-02 15:01:00,
2013-08-02 08:06:00,52.2,49.9,29.97,East,90,0.4,0.9,92,0.00,,,0.00,WUHU216HW,2013-08-02 15:06:00,
2013-08-02 08:11:00,52.4,50.0,29.98,ENE,68,0.9,0.9,92,0.00,,,0.00,WUHU216HW,2013-08-02 15:11:00,
2013-08-02 08:16:00,52.6,50.2,29.99,North,0,0.9,1.6,92,0.00,,,0.00,WUHU216HW,2013-08-02 15:16:00,
2013-08-02 08:21:00,52.6,50.2,29.98,ENE,68,1.1,1.6,92,0.00,,,0.00,WUHU216HW,2013-08-02 15:21:00,
2013-08-02 08:26:00,52.7,50.8,29.99,NE,45,0.4,1.1,93,0.00,,,0.00,WUHU216HW,2013-08-02 15:26:00,
2013-08-02 08:31:00,52.9,51.0,29.98,South,180,0.0,2.0,93,0.00,,,0.00,WUHU216HW,2013-08-02 15:31:00,
2013-08-02 08:36:00,52.9,51.0,29.99,NNE,23,0.4,2.0,93,0.00,,,0.00,WUHU216HW,2013-08-02 15:36:00,
2013-08-02 08:42:00,53.3,51.3,29.98,SE,135,0.4,1.1,93,0.00,,,0.00,WUHU216HW,2013-08-02 15:42:00,
2013-08-02 08:47:00,53.6,51.7,30.00,WSW,248,0.4,0.7,93,0.00,,,0.00,WUHU216HW,2013-08-02 15:47:00,
2013-08-02 08:52:00,53.6,51.7,29.99,East,90,1.1,1.1,93,0.00,,,0.00,WUHU216HW,2013-08-02 15:52:00,
2013-08-02 08:57:00,54.0,51.7,29.99,West,270,0.4,1.1,92,0.00,,,0.00,WUHU216HW,2013-08-02 15:57:00,
2013-08-02 09:02:00,54.2,51.8,29.99,North,0,1.6,2.2,92,0.00,,,0.00,WUHU216HW,2013-08-02 16:02:00,
2013-08-02 09:07:00,54.4,52.0,29.98,ENE,68,1.6,2.2,92,0.00,,,0.00,WUHU216HW,2013-08-02 16:07:00,
2013-08-02 09:12:00,54.4,52.0,29.97,NE,45,0.0,2.0,92,0.00,,,0.00,WUHU216HW,2013-08-02 16:12:00,
2013-08-02 09:17:00,54.4,52.0,29.99,ESE,113,1.1,2.0,92,0.00,,,0.00,WUHU216HW,2013-08-02 16:17:00,
2013-08-02 09:22:00,54.7,52.4,30.00,ENE,68,0.0,1.1,92,0.00,,,0.00,WUHU216HW,2013-08-02 16:22:00,
2013-08-02 09:27:00,55.1,52.5,29.98,NW,315,1.1,1.6,91,0.00,,,0.00,WUHU216HW,2013-08-02 16:27:00,
2013-08-02 09:32:00,55.4,52.6,29.99,ENE,68,1.1,1.6,90,0.00,,,0.00,WUHU216HW,2013-08-02 16:32:00,
2013-08-02 09:37:00,55.8,52.6,29.98,ESE,113,1.3,1.3,89,0.00,,,0.00,WUHU216HW,2013-08-02 16:37:00,
2013-08-02 09:42:00,56.5,53.0,29.99,NNW,338,3.6,3.6,88,0.00,,,0.00,WUHU216HW,2013-08-02 16:42:00,
2013-08-02 09:47:00,56.9,53.4,29.98,WSW,248,1.1,3.6,88,0.00,,,0.00,WUHU216HW,2013-08-02 16:47:00,
2013-08-02 09:52:00,57.8,53.9,29.99,West,270,2.7,2.7,87,0.00,,,0.00,WUHU216HW,2013-08-02 16:52:00,
2013-08-02 09:57:00,58.1,53.6,29.98,WSW,248,1.6,2.7,85,0.00,,,0.00,WUHU216HW,2013-08-02 16:57:00,
2013-08-02 10:02:00,58.7,53.8,29.99,WSW,248,0.4,1.8,84,0.00,,,0.00,WUHU216HW,2013-08-02 17:02:00,
2013-08-02 10:07:00,59.4,54.3,30.00,WNW,293,2.2,2.2,83,0.00,,,0.00,WUHU216HW,2013-08-02 17:07:00,
2013-08-02 10:13:00,60.1,54.6,29.99,North,0,1.1,2.2,82,0.00,,,0.00,WUHU216HW,2013-08-02 17:13:00,
2013-08-02 10:17:00,61.2,55.4,29.99,West,270,1.8,1.8,81,0.00,,,0.00,WUHU216HW,2013-08-02 17:17:00,
2013-08-02 10:23:00,61.6,54.3,29.99,SW,225,1.6,2.7,77,0.00,,,0.00,WUHU216HW,2013-08-02 17:23:00,
2013-08-02 10:28:00,61.9,55.0,29.98,SW,225,0.7,2.7,78,0.00,,,0.00,WUHU216HW,2013-08-02 17:28:00,
2013-08-02 10:33:00,62.5,54.7,29.99,East,90,0.7,1.3,76,0.00,,,0.00,WUHU216HW,2013-08-02 17:33:00,
2013-08-02 10:38:00,63.0,55.3,29.99,SSW,203,1.8,1.8,76,0.00,,,0.00,WUHU216HW,2013-08-02 17:38:00,
2013-08-02 10:43:00,63.7,56.0,29.99,SSE,158,0.7,1.8,76,0.00,,,0.00,WUHU216HW,2013-08-02 17:43:00,
2013-08-02 10:48:00,64.4,56.0,29.99,West,270,1.8,3.1,74,0.00,,,0.00,WUHU216HW,2013-08-02 17:48:00,
2013-08-02 10:53:00,64.6,55.5,29.99,WSW,248,0.9,3.1,72,0.00,,,0.00,WUHU216HW,2013-08-02 17:53:00,
2013-08-02 10:58:00,65.0,55.4,29.99,West,270,1.3,2.5,71,0.00,,,0.00,WUHU216HW,2013-08-02 17:58:00,
2013-08-02 11:03:00,65.3,55.4,29.99,West,270,1.8,2.0,70,0.00,,,0.00,WUHU216HW,2013-08-02 18:03:00,
2013-08-02 11:08:00,65.3,55.4,29.99,NE,45,1.8,2.0,70,0.00,,,0.00,WUHU216HW,2013-08-02 18:08:00,
2013-08-02 11:13:00,65.9,55.5,29.99,WNW,293,1.6,2.5,69,0.00,,,0.00,WUHU216HW,2013-08-02 18:13:00,
2013-08-02 11:18:00,65.9,55.0,29.98,West,270,1.6,2.5,68,0.00,,,0.00,WUHU216HW,2013-08-02 18:18:00,
2013-08-02 11:23:00,66.1,55.2,29.97,East,90,1.8,2.5,68,0.00,,,0.00,WUHU216HW,2013-08-02 18:23:00,
2013-08-02 11:28:00,66.6,55.3,29.98,West,270,1.1,1.8,67,0.00,,,0.00,WUHU216HW,2013-08-02 18:28:00,
2013-08-02 11:34:00,66.8,55.0,29.99,ENE,68,1.1,1.8,66,0.00,,,0.00,WUHU216HW,2013-08-02 18:34:00,
2013-08-02 11:39:00,67.1,54.9,29.99,North,0,1.6,1.8,65,0.00,,,0.00,WUHU216HW,2013-08-02 18:39:00,
2013-08-02 11:44:00,67.7,55.4,29.97,NNW,338,1.1,2.7,65,0.00,,,0.00,WUHU216HW,2013-08-02 18:44:00,
2013-08-02 11:49:00,68.2,55.5,29.98,WSW,248,0.4,2.7,64,0.00,,,0.00,WUHU216HW,2013-08-02 18:49:00,
2013-08-02 11:54:00,68.6,55.4,29.98,WSW,248,1.1,2.5,63,0.00,,,0.00,WUHU216HW,2013-08-02 18:54:00,
2013-08-02 11:59:00,69.1,55.5,29.98,WNW,293,1.1,1.8,62,0.00,,,0.00,WUHU216HW,2013-08-02 18:59:00,
2013-08-02 12:04:00,69.5,55.1,29.97,NW,315,1.6,4.0,60,0.00,,,0.00,WUHU216HW,2013-08-02 19:04:00,
2013-08-02 12:09:00,69.8,55.4,29.97,West,270,1.6,4.0,60,0.00,,,0.00,WUHU216HW,2013-08-02 19:09:00,
2013-08-02 12:14:00,70.2,55.8,29.98,West,270,1.1,2.7,60,0.00,,,0.00,WUHU216HW,2013-08-02 19:14:00,
2013-08-02 12:19:00,70.6,55.6,29.97,ENE,68,2.2,2.5,59,0.00,,,0.00,WUHU216HW,2013-08-02 19:19:00,
2013-08-02 12:24:00,71.3,56.3,29.96,SSE,158,0.9,3.4,59,0.00,,,0.00,WUHU216HW,2013-08-02 19:24:00,
2013-08-02 12:29:00,71.8,56.7,29.98,NNE,23,2.0,3.4,59,0.00,,,0.00,WUHU216HW,2013-08-02 19:29:00,
2013-08-02 12:34:00,72.2,56.5,29.98,ESE,113,1.1,2.2,58,0.00,,,0.00,WUHU216HW,2013-08-02 19:34:00,
2013-08-02 12:39:00,72.4,56.2,29.98,SSE,158,2.9,2.9,57,0.00,,,0.00,WUHU216HW,2013-08-02 19:39:00,
2013-08-02 12:44:00,72.4,55.7,29.97,North,0,4.0,4.0,56,0.00,,,0.00,WUHU216HW,2013-08-02 19:44:00,
2013-08-02 12:49:00,72.4,56.2,29.98,East,90,1.1,4.0,57,0.00,,,0.00,WUHU216HW,2013-08-02 19:49:00,
2013-08-02 12:54:00,72.4,55.7,29.96,NNW,338,2.5,3.4,56,0.00,,,0.00,WUHU216HW,2013-08-02 19:54:00,
2013-08-02 12:59:00,72.2,56.1,29.97,NNW,338,2.5,3.4,57,0.00,,,0.00,WUHU216HW,2013-08-02 19:59:00,
2013-08-02 13:04:00,72.2,56.1,29.97,East,90,3.4,3.4,57,0.00,,,0.00,WUHU216HW,2013-08-02 20:04:00,
2013-08-02 13:10:00,72.4,55.7,29.98,ESE,113,4.7,4.7,56,0.00,,,0.00,WUHU216HW,2013-08-02 20:10:00,
2013-08-02 13:15:00,72.2,55.5,29.97,NW,315,2.7,4.7,56,0.00,,,0.00,WUHU216HW,2013-08-02 20:15:00,
2013-08-02 13:20:00,72.0,55.4,29.98,NNE,23,2.0,4.3,56,0.00,,,0.00,WUHU216HW,2013-08-02 20:20:00,
2013-08-02 13:25:00,72.0,55.9,29.97,WSW,248,1.1,4.0,57,0.00,,,0.00,WUHU216HW,2013-08-02 20:25:00,
2013-08-02 13:30:00,72.4,56.2,29.98,North,0,2.9,4.0,57,0.00,,,0.00,WUHU216HW,2013-08-02 20:30:00,
2013-08-02 13:35:00,72.5,55.9,29.97,WSW,248,2.2,3.8,56,0.00,,,0.00,WUHU216HW,2013-08-02 20:35:00,
2013-08-02 13:40:00,72.9,56.7,29.98,East,90,2.5,3.8,57,0.00,,,0.00,WUHU216HW,2013-08-02 20:40:00,
2013-08-02 13:45:00,73.4,55.6,29.97,NNE,23,3.4,3.4,54,0.00,,,0.00,WUHU216HW,2013-08-02 20:45:00,
2013-08-02 13:50:00,72.9,55.7,29.98,North,0,0.9,3.4,55,0.00,,,0.00,WUHU216HW,2013-08-02 20:50:00,
2013-08-02 13:55:00,72.5,55.4,29.97,ENE,68,4.7,4.7,55,0.00,,,0.00,WUHU216HW,2013-08-02 20:55:00,
2013-08-02 14:00:00,72.2,55.0,29.99,North,0,5.4,5.4,55,0.00,,,0.00,WUHU216HW,2013-08-02 21:00:00,
2013-08-02 14:05:00,72.4,55.7,29.97,NNE,23,2.2,5.4,56,0.00,,,0.00,WUHU216HW,2013-08-02 21:05:00,
2013-08-02 14:10:00,73.1,56.3,29.97,North,0,3.1,3.1,56,0.00,,,0.00,WUHU216HW,2013-08-02 21:10:00,
2013-08-02 14:16:00,73.6,56.3,29.96,South,180,1.1,3.1,55,0.00,,,0.00,WUHU216HW,2013-08-02 21:16:00,
2013-08-02 14:21:00,73.1,55.8,29.97,NE,45,1.3,4.7,55,0.00,,,0.00,WUHU216HW,2013-08-02 21:21:00,
2013-08-02 14:26:00,73.1,55.8,29.98,North,0,2.0,4.7,55,0.00,,,0.00,WUHU216HW,2013-08-02 21:26:00,
2013-08-02 14:31:00,72.7,56.0,29.98,ENE,68,0.0,4.7,56,0.00,,,0.00,WUHU216HW,2013-08-02 21:31:00,
2013-08-02 14:36:00,73.1,56.3,29.99,SE,135,0.7,4.7,56,0.00,,,0.00,WUHU216HW,2013-08-02 21:36:00,
2013-08-02 14:41:00,73.8,56.5,29.97,ESE,113,1.1,2.5,55,0.00,,,0.00,WUHU216HW,2013-08-02 21:41:00,
2013-08-02 14:47:00,73.8,56.0,29.96,NNW,338,2.2,2.9,54,0.00,,,0.00,WUHU216HW,2013-08-02 21:47:00,
2013-08-02 14:52:00,73.4,56.2,29.97,WSW,248,1.1,3.8,55,0.00,,,0.00,WUHU216HW,2013-08-02 21:52:00,
2013-08-02 14:57:00,73.4,56.2,29.96,NE,45,2.0,3.8,55,0.00,,,0.00,WUHU216HW,2013-08-02 21:57:00,
2013-08-02 15:02:00,73.4,55.6,29.96,North,0,1.6,2.9,54,0.00,,,0.00,WUHU216HW,2013-08-02 22:02:00,
2013-08-02 15:07:00,72.9,55.2,29.96,ESE,113,1.1,2.7,54,0.00,,,0.00,WUHU216HW,2013-08-02 22:07:00,
2013-08-02 15:12:00,73.1,56.3,29.97,ENE,68,1.1,2.0,56,0.00,,,0.00,WUHU216HW,2013-08-02 22:12:00,
2013-08-02 15:17:00,73.3,56.0,29.96,NE,45,2.5,3.4,55,0.00,,,0.00,WUHU216HW,2013-08-02 22:17:00,
2013-08-02 15:22:00,73.4,56.2,29.97,ESE,113,0.9,3.4,55,0.00,,,0.00,WUHU216HW,2013-08-02 22:22:00,
2013-08-02 15:27:00,73.4,55.6,29.97,NNW,338,2.2,2.2,54,0.00,,,0.00,WUHU216HW,2013-08-02 22:27:00,
2013-08-02 15:32:00,73.4,56.2,29.97,North,0,2.7,2.7,55,0.00,,,0.00,WUHU216HW,2013-08-02 22:32:00,
2013-08-02 15:37:00,73.3,56.0,29.97,NE,45,1.1,2.7,55,0.00,,,0.00,WUHU216HW,2013-08-02 22:37:00,
2013-08-02 15:40:00,73.1,55.8,29.97,NNW,338,0.7,2.7,55,0.00,,,0.00,WUHU216HW,2013-08-02 22:40:00,
2013-08-02 15:45:00,73.3,56.0,29.96,NE,45,1.1,2.0,55,0.00,,,0.00,WUHU216HW,2013-08-02 22:45:00,
2013-08-02 15:50:00,72.9,55.7,29.96,SE,135,1.3,2.5,55,0.00,,,0.00,WUHU216HW,2013-08-02 22:50:00,
2013-08-02 15:55:00,72.7,56.0,29.96,ESE,113,1.1,2.5,56,0.00,,,0.00,WUHU216HW,2013-08-02 22:55:00,
2013-08-02 16:00:00,72.5,55.4,29.96,ENE,68,1.1,3.6,55,0.00,,,0.00,WUHU216HW,2013-08-02 23:00:00,
2013-08-02 16:05:00,72.2,55.5,29.95,NE,45,2.2,3.6,56,0.00,,,0.00,WUHU216HW,2013-08-02 23:05:00,
2013-08-02 16:10:00,71.6,55.1,29.97,ENE,68,1.6,3.4,56,0.00,,,0.00,WUHU216HW,2013-08-02 23:10:00,
2013-08-02 16:16:00,71.3,55.3,29.97,WSW,248,2.0,3.4,57,0.00,,,0.00,WUHU216HW,2013-08-02 23:16:00,
2013-08-02 16:21:00,71.1,55.1,29.96,SSW,203,0.7,3.1,57,0.00,,,0.00,WUHU216HW,2013-08-02 23:21:00,
2013-08-02 16:26:00,70.7,54.7,29.97,NNW,338,1.3,3.1,57,0.00,,,0.00,WUHU216HW,2013-08-02 23:26:00,
2013-08-02 16:31:00,70.2,54.3,29.97,WNW,293,1.1,1.8,57,0.00,,,0.00,WUHU216HW,2013-08-02 23:31:00,
2013-08-02 16:36:00,69.7,54.3,29.97,SE,135,0.9,1.3,58,0.00,,,0.00,WUHU216HW,2013-08-02 23:36:00,
2013-08-02 16:41:00,69.5,54.5,29.96,ESE,113,0.9,2.5,59,0.00,,,0.00,WUHU216HW,2013-08-02 23:41:00,
2013-08-02 16:46:00,69.7,54.7,29.98,West,270,1.8,2.5,59,0.00,,,0.00,WUHU216HW,2013-08-02 23:46:00,
2013-08-02 16:51:00,69.5,54.5,30.00,West,270,1.1,2.5,59,0.00,,,0.00,WUHU216HW,2013-08-02 23:51:00,
2013-08-02 16:56:00,69.3,54.4,29.99,NW,315,0.7,2.5,59,0.00,,,0.00,WUHU216HW,2013-08-02 23:56:00,
2013-08-02 17:02:00,68.9,54.0,30.00,WSW,248,0.0,2.0,59,0.00,,,0.00,WUHU216HW,2013-08-03 00:02:00,
2013-08-02 17:07:00,68.6,54.2,29.99,SSE,158,1.8,2.0,60,0.00,,,0.00,WUHU216HW,2013-08-03 00:07:00,
2013-08-02 17:12:00,68.2,53.8,29.99,ESE,113,0.4,1.8,60,0.00,,,0.00,WUHU216HW,2013-08-03 00:12:00,
2013-08-02 17:17:00,68.0,54.1,30.00,North,0,0.7,1.8,61,0.00,,,0.00,WUHU216HW,2013-08-03 00:17:00,
2013-08-02 17:22:00,67.7,53.7,30.01,WNW,293,0.4,1.8,61,0.00,,,0.00,WUHU216HW,2013-08-03 00:22:00,
2013-08-02 17:27:00,67.9,53.9,30.00,WSW,248,1.1,2.0,61,0.00,,,0.00,WUHU216HW,2013-08-03 00:27:00,
2013-08-02 17:32:00,67.7,53.7,29.99,SW,225,0.4,2.0,61,0.00,,,0.00,WUHU216HW,2013-08-03 00:32:00,
2013-08-02 17:37:00,67.7,54.2,29.99,SSE,158,1.8,2.2,62,0.00,,,0.00,WUHU216HW,2013-08-03 00:37:00,
2013-08-02 17:43:00,67.5,54.0,30.00,WSW,248,0.4,2.2,62,0.00,,,0.00,WUHU216HW,2013-08-03 00:43:00,
2013-08-02 17:48:00,67.1,53.6,30.00,West,270,1.6,1.6,62,0.00,,,0.00,WUHU216HW,2013-08-03 00:48:00,
2013-08-02 17:53:00,66.8,53.7,30.00,North,0,0.7,1.6,63,0.00,,,0.00,WUHU216HW,2013-08-03 00:53:00,
2013-08-02 17:58:00,66.4,53.5,30.00,East,90,0.7,1.3,63,0.00,,,0.00,WUHU216HW,2013-08-03 00:58:00,
2013-08-02 18:03:00,66.2,53.6,29.99,NNE,23,0.0,1.8,64,0.00,,,0.00,WUHU216HW,2013-08-03 01:03:00,
2013-08-02 18:08:00,66.1,53.5,30.00,NNW,338,0.2,1.8,64,0.00,,,0.00,WUHU216HW,2013-08-03 01:08:00,
2013-08-02 18:13:00,65.7,53.6,30.00,ENE,68,0.4,1.3,65,0.00,,,0.00,WUHU216HW,2013-08-03 01:13:00,
2013-08-02 18:18:00,65.5,53.4,29.99,NNW,338,0.4,2.9,65,0.00,,,0.00,WUHU216HW,2013-08-03 01:18:00,
2013-08-02 18:23:00,65.2,53.1,30.00,WSW,248,0.7,2.9,65,0.00,,,0.00,WUHU216HW,2013-08-03 01:23:00,
2013-08-02 18:28:00,65.2,53.1,29.98,SE,135,1.3,2.5,65,0.00,,,0.00,WUHU216HW,2013-08-03 01:28:00,
2013-08-02 18:33:00,65.0,52.9,29.99,ENE,68,1.3,1.6,65,0.00,,,0.00,WUHU216HW,2013-08-03 01:33:00,
2013-08-02 18:38:00,64.4,52.8,29.99,NNE,23,0.4,1.6,66,0.00,,,0.00,WUHU216HW,2013-08-03 01:38:00,
2013-08-02 18:43:00,64.3,52.7,29.99,WSW,248,1.1,1.1,66,0.00,,,0.00,WUHU216HW,2013-08-03 01:43:00,
2013-08-02 18:48:00,63.9,52.3,30.00,WSW,248,1.1,1.6,66,0.00,,,0.00,WUHU216HW,2013-08-03 01:48:00,
2013-08-02 18:53:00,63.5,52.4,29.99,East,90,0.9,1.6,67,0.00,,,0.00,WUHU216HW,2013-08-03 01:53:00,
2013-08-02 18:58:00,63.0,52.3,29.99,ESE,113,0.4,1.1,68,0.00,,,0.00,WUHU216HW,2013-08-03 01:58:00,
2013-08-02 19:04:00,62.5,52.6,29.99,West,270,0.4,1.1,70,0.00,,,0.00,WUHU216HW,2013-08-03 02:04:00,
2013-08-02 19:09:00,61.9,51.7,29.99,WSW,248,1.1,1.6,69,0.00,,,0.00,WUHU216HW,2013-08-03 02:09:00,
2013-08-02 19:14:00,61.6,51.4,30.00,ENE,68,0.4,1.6,69,0.00,,,0.00,WUHU216HW,2013-08-03 02:14:00,
2013-08-02 19:19:00,60.8,51.1,30.00,NNW,338,1.1,1.3,70,0.00,,,0.00,WUHU216HW,2013-08-03 02:19:00,
2013-08-02 19:24:00,60.3,51.3,29.99,ENE,68,0.2,2.5,72,0.00,,,0.00,WUHU216HW,2013-08-03 02:24:00,
2013-08-02 19:29:00,59.9,51.3,30.00,NNW,338,1.1,2.5,73,0.00,,,0.00,WUHU216HW,2013-08-03 02:29:00,
2013-08-02 19:34:00,59.6,50.9,29.99,NE,45,0.4,2.2,73,0.00,,,0.00,WUHU216HW,2013-08-03 02:34:00,
2013-08-02 19:39:00,59.4,51.5,29.99,West,270,1.8,1.8,75,0.00,,,0.00,WUHU216HW,2013-08-03 02:39:00,
2013-08-02 19:44:00,59.0,51.1,30.00,WSW,248,1.6,1.8,75,0.00,,,0.00,WUHU216HW,2013-08-03 02:44:00,
2013-08-02 19:49:00,58.5,51.3,30.00,North,0,1.1,1.8,77,0.00,,,0.00,WUHU216HW,2013-08-03 02:49:00,
2013-08-02 19:54:00,58.0,51.1,29.99,NNW,338,2.9,2.9,78,0.00,,,0.00,WUHU216HW,2013-08-03 02:54:00,
2013-08-02 19:59:00,57.8,50.6,29.99,NNE,23,1.3,2.9,77,0.00,,,0.00,WUHU216HW,2013-08-03 02:59:00,
2013-08-02 20:04:00,57.6,50.8,29.99,SE,135,1.3,2.5,78,0.00,,,0.00,WUHU216HW,2013-08-03 03:04:00,
2013-08-02 20:10:00,57.6,51.1,29.99,WNW,293,0.4,2.5,79,0.00,,,0.00,WUHU216HW,2013-08-03 03:10:00,
2013-08-02 20:15:00,57.4,50.9,29.99,SW,225,0.7,2.7,79,0.00,,,0.00,WUHU216HW,2013-08-03 03:15:00,
2013-08-02 20:20:00,57.2,50.8,29.99,NE,45,0.9,2.7,79,0.00,,,0.00,WUHU216HW,2013-08-03 03:20:00,
2013-08-02 20:25:00,57.1,50.6,30.00,ENE,68,0.4,2.2,79,0.00,,,0.00,WUHU216HW,2013-08-03 03:25:00,
2013-08-02 20:30:00,56.9,50.4,29.99,East,90,1.1,1.3,79,0.00,,,0.00,WUHU216HW,2013-08-03 03:30:00,
2013-08-02 20:35:00,56.9,50.8,30.00,North,0,0.7,1.8,80,0.00,,,0.00,WUHU216HW,2013-08-03 03:35:00,
2013-08-02 20:40:00,56.7,51.0,29.99,East,90,1.1,2.0,81,0.00,,,0.00,WUHU216HW,2013-08-03 03:40:00,
2013-08-02 20:45:00,56.7,50.6,29.99,West,270,0.4,2.0,80,0.00,,,0.00,WUHU216HW,2013-08-03 03:45:00,
2013-08-02 20:50:00,56.7,50.6,30.00,SE,135,1.1,1.6,80,0.00,,,0.00,WUHU216HW,2013-08-03 03:50:00,
2013-08-02 20:55:00,56.9,50.8,29.98,South,180,0.0,1.3,80,0.00,,,0.00,WUHU216HW,2013-08-03 03:55:00,
2013-08-02 21:00:00,56.9,50.8,30.00,SW,225,1.1,1.6,80,0.00,,,0.00,WUHU216HW,2013-08-03 04:00:00,
2013-08-02 21:01:00,56.9,50.8,30.00,SW,225,1.1,1.6,80,0.00,,,0.00,WUHU216HW,2013-08-03 04:01:00,
2013-08-02 21:02:00,56.9,50.8,30.00,West,270,1.8,1.8,80,0.00,,,0.00,WUHU216HW,2013-08-03 04:02:00,
2013-08-02 21:07:00,56.9,51.1,29.99,WSW,248,0.9,1.8,81,0.00,,,0.00,WUHU216HW,2013-08-03 04:07:00,
2013-08-02 21:12:00,56.7,51.0,30.01,West,270,1.8,1.8,81,0.00,,,0.00,WUHU216HW,2013-08-03 04:12:00,
2013-08-02 21:17:00,56.5,50.8,30.00,West,270,2.0,3.4,81,0.00,,,0.00,WUHU216HW,2013-08-03 04:17:00,
2013-08-02 21:22:00,56.2,50.4,30.00,West,270,2.5,3.6,81,0.00,,,0.00,WUHU216HW,2013-08-03 04:22:00,
2013-08-02 21:27:00,56.0,50.5,30.00,WNW,293,3.6,3.6,82,0.00,,,0.00,WUHU216HW,2013-08-03 04:27:00,
2013-08-02 21:32:00,55.8,50.3,30.00,WSW,248,3.4,4.0,82,0.00,,,0.00,WUHU216HW,2013-08-03 04:32:00,
2013-08-02 21:37:00,55.6,50.1,30.00,West,270,3.4,4.0,82,0.00,,,0.00,WUHU216HW,2013-08-03 04:37:00,
2013-08-02 21:43:00,55.4,50.3,29.99,WSW,248,2.2,3.4,83,0.00,,,0.00,WUHU216HW,2013-08-03 04:43:00,
2013-08-02 21:48:00,55.4,50.3,30.00,WSW,248,2.7,3.8,83,0.00,,,0.00,WUHU216HW,2013-08-03 04:48:00,
2013-08-02 21:52:00,55.4,50.6,30.00,WSW,248,3.4,3.8,84,0.00,,,0.00,WUHU216HW,2013-08-03 04:52:00,
2013-08-02 21:58:00,55.3,50.5,30.01,WSW,248,3.6,4.0,84,0.00,,,0.00,WUHU216HW,2013-08-03 04:58:00,
2013-08-02 22:03:00,55.1,50.3,30.00,WSW,248,3.6,4.7,84,0.00,,,0.00,WUHU216HW,2013-08-03 05:03:00,
2013-08-02 22:08:00,55.1,50.3,30.01,WSW,248,3.4,4.7,84,0.00,,,0.00,WUHU216HW,2013-08-03 05:08:00,
2013-08-02 22:13:00,54.9,50.4,30.00,West,270,2.9,4.5,85,0.00,,,0.00,WUHU216HW,2013-08-03 05:13:00,
2013-08-02 22:18:00,54.9,50.8,29.99,West,270,3.1,4.5,86,0.00,,,0.00,WUHU216HW,2013-08-03 05:18:00,
2013-08-02 22:23:00,54.7,50.6,30.00,West,270,2.7,4.3,86,0.00,,,0.00,WUHU216HW,2013-08-03 05:23:00,
2013-08-02 22:28:00,54.7,50.6,30.00,West,270,2.9,4.3,86,0.00,,,0.00,WUHU216HW,2013-08-03 05:28:00,
2013-08-02 22:33:00,54.5,50.4,30.00,West,270,3.4,4.7,86,0.00,,,0.00,WUHU216HW,2013-08-03 05:33:00,
2013-08-02 22:38:00,54.5,50.4,30.00,WSW,248,3.6,4.7,86,0.00,,,0.00,WUHU216HW,2013-08-03 05:38:00,
2013-08-02 22:43:00,54.4,50.2,29.99,West,270,2.9,4.3,86,0.00,,,0.00,WUHU216HW,2013-08-03 05:43:00,
2013-08-02 22:48:00,54.4,50.2,30.00,West,270,3.4,4.3,86,0.00,,,0.00,WUHU216HW,2013-08-03 05:48:00,
2013-08-02 22:53:00,54.2,50.4,30.01,West,270,3.4,4.3,87,0.00,,,0.00,WUHU216HW,2013-08-03 05:53:00,
2013-08-02 22:58:00,54.0,50.2,29.99,West,270,4.0,4.7,87,0.00,,,0.00,WUHU216HW,2013-08-03 05:58:00,
2013-08-02 23:03:00,54.0,50.2,30.01,WSW,248,3.8,4.7,87,0.00,,,0.00,WUHU216HW,2013-08-03 06:03:00,
2013-08-02 23:08:00,54.0,50.5,30.00,West,270,4.0,4.0,88,0.00,,,0.00,WUHU216HW,2013-08-03 06:08:00,
2013-08-02 23:14:00,54.0,50.5,29.99,West,270,3.6,4.0,88,0.00,,,0.00,WUHU216HW,2013-08-03 06:14:00,
2013-08-02 23:19:00,54.0,50.5,30.00,WSW,248,3.4,4.5,88,0.00,,,0.00,WUHU216HW,2013-08-03 06:19:00,
2013-08-02 23:24:00,53.8,50.3,29.96,West,270,3.8,4.7,88,0.00,,,0.00,WUHU216HW,2013-08-03 06:24:00,
2013-08-02 23:29:00,53.6,50.5,29.96,WSW,248,3.4,4.7,89,0.00,,,0.00,WUHU216HW,2013-08-03 06:29:00,
2013-08-02 23:34:00,53.6,50.5,29.96,WSW,248,2.9,4.3,89,0.00,,,0.00,WUHU216HW,2013-08-03 06:34:00,
2013-08-02 23:39:00,53.6,50.5,29.95,WSW,248,4.0,4.3,89,0.00,,,0.00,WUHU216HW,2013-08-03 06:39:00,
2013-08-02 23:44:00,53.6,50.5,29.96,West,270,4.0,4.7,89,0.00,,,0.00,WUHU216HW,2013-08-03 06:44:00,
2013-08-02 23:49:00,53.6,50.5,29.96,West,270,3.4,4.7,89,0.00,,,0.00,WUHU216HW,2013-08-03 06:49:00,
2013-08-02 23:54:00,53.5,50.3,29.96,WSW,248,2.2,4.5,89,0.00,,,0.00,WUHU216HW,2013-08-03 06:54:00,
2013-08-02 23:59:00,53.5,50.3,29.96,West,270,1.1,4.0,89,0.00,,,0.00,WUHU216HW,2013-08-03 06:59:00,